Meteo pe oră la Abdulmambetovo

Astăzi, 26 Iulie, Luni

Timp Temperatura Precipitaţii Vânt Presiune Umiditate
00:00 +13°C° 0 mm 2 m/s 728 mmHg 64%
01:00 +12°C° 0 mm 2 m/s 729 mmHg 65%
02:00 +10°C° 0 mm 2 m/s 729 mmHg 66%
03:00 +10°C° 0 mm 2 m/s 729 mmHg 68%
04:00 +9°C° 0 mm 2 m/s 729 mmHg 69%
05:00 +12°C° 0 mm 2 m/s 729 mmHg 64%
06:00 +14°C° 0 mm 2 m/s 730 mmHg 59%
07:00 +15°C° 0 mm 2 m/s 730 mmHg 54%
08:00 +16°C° 0 mm 2 m/s 730 mmHg 50%
09:00 +19°C° 0 mm 1 m/s 730 mmHg 45%
10:00 +20°C° 0 mm 1 m/s 730 mmHg 41%
11:00 +21°C° 0 mm 1 m/s 730 mmHg 38%
12:00 +22°C° 0 mm 1 m/s 730 mmHg 36%
13:00 +23°C° 0 mm 1 m/s 730 mmHg 33%
14:00 +23°C° 0 mm 2 m/s 729 mmHg 33%
15:00 +23°C° 0 mm 2 m/s 729 mmHg 32%
16:00 +23°C° 0 mm 2 m/s 729 mmHg 32%
17:00 +21°C° 0 mm 2 m/s 729 mmHg 36%
18:00 +21°C° 0 mm 2 m/s 729 mmHg 41%
19:00 +20°C° 0 mm 2 m/s 729 mmHg 45%
20:00 +18°C° 0 mm 2 m/s 729 mmHg 47%
21:00 +17°C° 0 mm 2 m/s 729 mmHg 50%
22:00 +16°C° 0 mm 2 m/s 729 mmHg 53%
23:00 +15°C° 0 mm 2 m/s 729 mmHg 54%

Mâine, 27 Iulie, Marţi

Timp Temperatura Precipitaţii Vânt Presiune Umiditate
00:00 +14°C° 0 mm 2 m/s 729 mmHg 55%
01:00 +14°C° 0 mm 2 m/s 729 mmHg 56%
02:00 +13°C° 0 mm 1 m/s 729 mmHg 57%
03:00 +13°C° 0 mm 1 m/s 729 mmHg 59%
04:00 +12°C° 0 mm 1 m/s 729 mmHg 61%
05:00 +14°C° 0 mm 1 m/s 729 mmHg 56%
06:00 +15°C° 0 mm 1 m/s 729 mmHg 51%
07:00 +18°C° 0 mm 1 m/s 729 mmHg 47%
08:00 +19°C° 0 mm 2 m/s 729 mmHg 42%
09:00 +20°C° 0 mm 2 m/s 728 mmHg 38%
10:00 +22°C° 0 mm 3 m/s 728 mmHg 34%
11:00 +22°C° 0 mm 4 m/s 728 mmHg 34%
12:00 +22°C° 0 mm 4 m/s 728 mmHg 34%
13:00 +22°C° 0 mm 5 m/s 727 mmHg 34%
14:00 +23°C° 0 mm 5 m/s 727 mmHg 35%
15:00 +23°C° 0 mm 5 m/s 727 mmHg 35%
16:00 +23°C° 0 mm 4 m/s 727 mmHg 36%
17:00 +22°C° 0 mm 4 m/s 726 mmHg 40%
18:00 +21°C° 0 mm 3 m/s 726 mmHg 44%
19:00 +20°C° 0 mm 3 m/s 726 mmHg 48%
20:00 +18°C° 0 mm 3 m/s 726 mmHg 52%
21:00 +17°C° 0 mm 2 m/s 725 mmHg 56%
22:00 +15°C° 0 mm 2 m/s 725 mmHg 60%
23:00 +15°C° 0 mm 2 m/s 725 mmHg 59%

Poimâine, 28 Iulie, Miercuri

Timp Temperatura Precipitaţii Vânt Presiune Umiditate
00:00 +16°C° 0 mm 2 m/s 725 mmHg 58%
01:00 +16°C° 0 mm 2 m/s 724 mmHg 57%
02:00 +15°C° 0 mm 2 m/s 724 mmHg 64%
03:00 +13°C° 0 mm 3 m/s 724 mmHg 72%
04:00 +12°C° 0 mm 3 m/s 724 mmHg 80%
05:00 +13°C° 0 mm 3 m/s 724 mmHg 76%
06:00 +14°C° 0 mm 3 m/s 725 mmHg 73%
07:00 +15°C° 0 mm 4 m/s 725 mmHg 70%
08:00 +18°C° 0 mm 4 m/s 725 mmHg 60%
09:00 +19°C° 0 mm 4 m/s 725 mmHg 51%
10:00 +20°C° 0 mm 5 m/s 725 mmHg 41%
11:00 +21°C° 0 mm 5 m/s 725 mmHg 39%
12:00 +22°C° 0 mm 5 m/s 725 mmHg 37%
13:00 +22°C° 0 mm 5 m/s 725 mmHg 34%
14:00 +22°C° 0 mm 5 m/s 725 mmHg 33%
15:00 +22°C° 0 mm 5 m/s 725 mmHg 32%
16:00 +22°C° 0 mm 4 m/s 725 mmHg 30%
17:00 +21°C° 0 mm 4 m/s 725 mmHg 34%
18:00 +20°C° 0 mm 4 m/s 726 mmHg 38%
19:00 +19°C° 0 mm 4 m/s 726 mmHg 42%
20:00 +17°C° 0 mm 3 m/s 726 mmHg 47%
21:00 +15°C° 0 mm 2 m/s 726 mmHg 52%
22:00 +13°C° 0 mm 1 m/s 726 mmHg 58%
23:00 +13°C° 0 mm 1 m/s 726 mmHg 58%

29 Iulie, Joi

Timp Temperatura Precipitaţii Vânt Presiune Umiditate
00:00 +12°C° 0 mm 1 m/s 726 mmHg 59%
01:00 +12°C° 0 mm 1 m/s 726 mmHg 60%
02:00 +11°C° 0 mm 1 m/s 726 mmHg 60%
03:00 +11°C° 0 mm 1 m/s 726 mmHg 61%
04:00 +11°C° 0 mm 1 m/s 726 mmHg 61%
05:00 +13°C° 0 mm 2 m/s 726 mmHg 56%
06:00 +15°C° 0 mm 2 m/s 726 mmHg 51%
07:00 +17°C° 0 mm 2 m/s 726 mmHg 46%
08:00 +19°C° 0 mm 3 m/s 726 mmHg 40%
09:00 +20°C° 0 mm 3 m/s 726 mmHg 35%
10:00 +22°C° 0 mm 4 m/s 726 mmHg 30%
11:00 +23°C° 0 mm 4 m/s 726 mmHg 29%
12:00 +25°C° 0 mm 5 m/s 726 mmHg 28%
13:00 +25°C° 0 mm 5 m/s 725 mmHg 26%
14:00 +26°C° 0 mm 5 m/s 725 mmHg 27%
15:00 +26°C° 0 mm 4 m/s 725 mmHg 28%
16:00 +27°C° 0 mm 4 m/s 724 mmHg 29%
17:00 +26°C° 0 mm 4 m/s 724 mmHg 35%
18:00 +24°C° 0 mm 3 m/s 724 mmHg 40%
19:00 +22°C° 0 mm 3 m/s 724 mmHg 46%
20:00 +21°C° 0 mm 2 m/s 723 mmHg 51%
21:00 +20°C° 0 mm 2 m/s 723 mmHg 56%
22:00 +19°C° 0 mm 2 m/s 723 mmHg 61%
23:00 +19°C° 0 mm 3 m/s 722 mmHg 59%

30 Iulie, Vineri

Timp Temperatura Precipitaţii Vânt Presiune Umiditate
00:00 +19°C° 0 mm 3 m/s 722 mmHg 57%
01:00 +20°C° 0 mm 4 m/s 722 mmHg 54%
02:00 +20°C° 0 mm 5 m/s 721 mmHg 52%
03:00 +20°C° 0 mm 6 m/s 721 mmHg 51%
04:00 +21°C° 0 mm 8 m/s 721 mmHg 49%
05:00 +21°C° 0 mm 8 m/s 721 mmHg 51%
06:00 +21°C° 0 mm 8 m/s 721 mmHg 53%
07:00 +21°C° 0 mm 7 m/s 721 mmHg 56%
08:00 +22°C° 0.1 mm 7 m/s 721 mmHg 56%
09:00 +23°C° 0.1 mm 6 m/s 721 mmHg 57%
10:00 +25°C° 0.1 mm 5 m/s 721 mmHg 57%
11:00 +26°C° 0 mm 6 m/s 721 mmHg 52%
12:00 +27°C° 0 mm 6 m/s 721 mmHg 47%
13:00 +28°C° 0 mm 7 m/s 721 mmHg 42%
14:00 +27°C° 0.1 mm 6 m/s 721 mmHg 46%
15:00 +27°C° 0.1 mm 5 m/s 721 mmHg 50%
16:00 +26°C° 0.1 mm 5 m/s 721 mmHg 54%
17:00 +25°C° 0 mm 4 m/s 721 mmHg 56%
18:00 +25°C° 0 mm 3 m/s 721 mmHg 57%
19:00 +25°C° 0 mm 2 m/s 721 mmHg 59%
20:00 +23°C° 0 mm 2 m/s 721 mmHg 64%
21:00 +21°C° 0 mm 2 m/s 721 mmHg 70%
22:00 +19°C° 0 mm 2 m/s 721 mmHg 75%
23:00 +19°C° 0 mm 2 m/s 721 mmHg 79%

31 Iulie, Sâmbătă

Timp Temperatura Precipitaţii Vânt Presiune Umiditate
00:00 +18°C° 0 mm 2 m/s 722 mmHg 83%
01:00 +17°C° 0 mm 2 m/s 722 mmHg 87%
02:00 +17°C° 0 mm 2 m/s 722 mmHg 89%
03:00 +17°C° 0 mm 2 m/s 722 mmHg 90%
04:00 +16°C° 0 mm 2 m/s 722 mmHg 91%
05:00 +18°C° 0 mm 2 m/s 722 mmHg 83%
06:00 +20°C° 0 mm 3 m/s 723 mmHg 76%
07:00 +21°C° 0 mm 3 m/s 723 mmHg 68%
08:00 +23°C° 0 mm 4 m/s 723 mmHg 60%
09:00 +26°C° 0 mm 5 m/s 723 mmHg 52%
10:00 +28°C° 0 mm 5 m/s 723 mmHg 45%
11:00 +29°C° 0 mm 5 m/s 723 mmHg 42%
12:00 +30°C° 0 mm 5 m/s 723 mmHg 39%
13:00 +32°C° 0 mm 6 m/s 723 mmHg 37%
14:00 +30°C° 0 mm 5 m/s 723 mmHg 39%
15:00 +29°C° 0 mm 4 m/s 723 mmHg 42%
16:00 +28°C° 0 mm 3 m/s 723 mmHg 45%
17:00 +28°C° 0 mm 3 m/s 723 mmHg 47%
18:00 +28°C° 0 mm 2 m/s 723 mmHg 50%
19:00 +27°C° 0 mm 2 m/s 724 mmHg 53%
20:00 +25°C° 0 mm 2 m/s 724 mmHg 62%
21:00 +23°C° 0 mm 2 m/s 724 mmHg 70%
22:00 +21°C° 0 mm 1 m/s 724 mmHg 79%
23:00 +21°C° 0 mm 1 m/s 725 mmHg 81%
Arată mai mult

Formular de consimțământ

Meteoprog și furnizorii noștri de servicii pot stoca și accesa date personale, precum cookies, identificatori de dispozitiv sau alte tehnologii similare pe dispozitivul dumneavoastră și procesa astfel de date pentru a personaliza conținutul și reclamele, dar și pentru a oferi caracteristici de social media și pentru a analiza traficul.

  • Stocarea și/sau accesarea informațiilor pe dispozitivul dumneavoastră

    Cookies, identificatori de dispozitiv sau alte informații pot fi stocate sau accesate pe dispozitiv în scopurile indicate mai sus.

  • Reclame și conținut personalizat, evaluarea reclamelor și a conținutului, informații despre audiențe și dezvoltarea produselor

    Reclamele și conținutul pot fi personalizate pe baza unui profil. Pot fi adăugate date suplimentare pentru a personaliza mai bine reclamele și conținutul. Performanța reclamelor și conținutului poate fi măsurată. Pot fi obținute informații despre utilizatorii care au văzut reclamele și conținutul. Aceste date pot fi utilizate pentru a dezvolta sau îmbunătăți experiența utilizatorilor, sistemele și software-ul.

Dând clic pe ‘Sunt de acord’, permiteți utilizarea cookie-urilor menționate, a identificatorilor de dispozitiv, balizelor web sau altor tehnologii similare. Setările pot fi modificate din browser-ul dispozitivului dumneavoastră.

În anumite scopuri, interesele legitime pot prima asupra consimțământului. Puteți citi mai multe informații în acest sens în Politica privind Confidențialitatea Datelor și Cookie.